Flag for Singapore Weather past 2 weeks in Singapore, Singapore

Now
82 °F

Partly sunny.


Feels Like: 89 °F
Forecast: 79 / 90 °F
Wind: 7 mph from Southwest

Location: Singapore / Paya Lebar

Current Time: May 23, 2015 at 5:12:19 PM

Latest Report: May 23, 2015 at 4:00 PM


Visibility: N/A

Pressure: 29.83 "Hg

Humidity: 79%

Dew point: 75 °F

Location of SingaporeLocation

Historic Weather in Singapore — Graph

°F

Singapore temperature yesterday

Maximum temperature yesterday: 88 °F (at 10:00 AM)
Minimum temperature yesterday: 84 °F (at 5:00 AM)
Average temperature yesterday: 85 °F

Past Weeks' High & Low Weather Summary

 TemperatureHumidityPressure
High95 °F (May 14, 3:00 PM)94% (May 15, 12:00 PM)29.95 "Hg (May 15, 12:00 PM)
Low77 °F (May 15, 12:00 PM)50% (May 14, 3:00 PM)29.71 "Hg (May 9, 4:00 PM)
Average86 °F77%29.82 "Hg
* Reported May 8 4:00 PM — May 23 4:00 PM, Singapore, Weather by CustomWeather, © 2015

Note: Actual official high and low records may vary slightly from our data, if they occured in-between our weather recording intervals... More about our weather records

Advertising

Singapore weather history for previous 24 hours

 ConditionsComfort  
Time TempWeatherWind HumidityBarometerVisibility
4:00 PM
Sat, May 23
82 °FPartly sunny.7 mph79%29.83 "HgN/A
3:00 PM82 °FBroken clouds.13 mph84%29.86 "HgN/A
2:00 PM82 °FBroken clouds.8 mph84%29.86 "HgN/A
1:00 PM81 °FLight rain. Partly sunny.6 mph84%29.89 "HgN/A
12:00 PM81 °FLight rain. Partly sunny.9 mph89%29.92 "HgN/A
11:00 AM79 °FLight rain. Overcast.1 mph94%29.92 "Hg5 mi
10:00 AM79 °FThunderstorms. Overcast.No wind89%29.89 "Hg4 mi
9:00 AM79 °FLight rain. Partly sunny.1 mph89%29.89 "HgN/A
8:00 AM79 °FThunderstorms. Partly sunny.6 mph89%29.86 "HgN/A
7:00 AM79 °FThunderstorms. Partly sunny.10 mph89%29.86 "Hg5 mi
6:00 AM81 °FStrong thunderstorms. Partly cloudy.3 mph89%29.83 "Hg1 mi
5:00 AM82 °FThunderstorms. Passing clouds.10 mph84%29.83 "Hg5 mi
11:00 PM
Fri, May 22
84 °FLight rain. Passing clouds.6 mph84%29.86 "HgN/A
10:00 PM84 °FPartly cloudy.8 mph84%29.86 "HgN/A
9:00 PM84 °FPassing clouds.9 mph79%29.83 "HgN/A
8:00 PM84 °FPassing clouds.7 mph79%29.80 "HgN/A
7:00 PM84 °FPartly sunny.6 mph79%29.80 "HgN/A
6:00 PM84 °FPartly sunny.6 mph79%29.80 "HgN/A
5:00 PM84 °FBroken clouds.9 mph79%29.80 "HgN/A
Weather by CustomWeather, © 2015

See weather overviewHow to use our weather pages